![]() |
EMODnet Physics ERDDAP
Easier access to scientific data |
log in|
Brought to you by EMODnet Physics |
| Dataset Title: | NDBC - Collection of dew point temperature (DEWT) TimeSeries - IN SITU MultiPointTimeSeriesObservation
|
| Institution: | NDBC (Dataset ID: TS_DEWT_NDBC) |
| Information: | Summary
| License
| FGDC
| ISO 19115
| Metadata
| Background
| Subset
| Data Access Form
| Make a graph
|
| Name | Last modified | Size | Description | |
|---|---|---|---|---|
| Parent Directory | - | - | ||
| 51210_TS_DEWT_012017.nc | 27-Oct-2024 04:37 | 1108654 | ||
| 51210_TS_DEWT_012018.nc | 27-Oct-2024 04:37 | 706090 | ||
| 51210_TS_DEWT_012019.nc | 27-Oct-2024 04:37 | 679041 | ||
| 51210_TS_DEWT_012020.nc | 27-Oct-2024 04:37 | 667117 | ||
| 51210_TS_DEWT_012021.nc | 27-Oct-2024 04:37 | 1008713 | ||
| 51210_TS_DEWT_012023.nc | 27-Oct-2024 04:37 | 991281 | ||
| 51210_TS_DEWT_022017.nc | 27-Oct-2024 04:37 | 1263945 | ||
| 51210_TS_DEWT_022018.nc | 27-Oct-2024 04:37 | 1261605 | ||
| 51210_TS_DEWT_022019.nc | 27-Oct-2024 04:37 | 1262497 | ||
| 51210_TS_DEWT_022020.nc | 27-Oct-2024 04:37 | 1261977 | ||
| 51210_TS_DEWT_022021.nc | 27-Oct-2024 04:37 | 1263468 | ||
| 51210_TS_DEWT_022023.nc | 27-Oct-2024 04:37 | 674222 | ||
| 51210_TS_DEWT_032017.nc | 27-Oct-2024 04:37 | 643260 | ||
| 51210_TS_DEWT_032018.nc | 27-Oct-2024 04:38 | 1001541 | ||
| 51210_TS_DEWT_032019.nc | 27-Oct-2024 04:38 | 1107215 | ||
| 51210_TS_DEWT_032020.nc | 27-Oct-2024 04:38 | 1106088 | ||
| 51210_TS_DEWT_032021.nc | 27-Oct-2024 04:38 | 1262762 | ||
| 51210_TS_DEWT_032023.nc | 27-Oct-2024 04:38 | 1261661 | ||
| 51210_TS_DEWT_042017.nc | 27-Oct-2024 04:38 | 1260734 | ||
| 51210_TS_DEWT_042018.nc | 27-Oct-2024 04:38 | 1263986 | ||
| 51210_TS_DEWT_042019.nc | 27-Oct-2024 04:38 | 671556 | ||
| 51210_TS_DEWT_042020.nc | 27-Oct-2024 04:38 | 1004272 | ||
| 51210_TS_DEWT_042021.nc | 27-Oct-2024 04:38 | 1019363 | ||
| 51210_TS_DEWT_042023.nc | 27-Oct-2024 04:38 | 1016963 | ||
| 51210_TS_DEWT_052017.nc | 27-Oct-2024 04:38 | 1112410 | ||
| 51210_TS_DEWT_052018.nc | 27-Oct-2024 04:38 | 1108816 | ||
| 51210_TS_DEWT_052019.nc | 27-Oct-2024 04:38 | 1111709 | ||
| 51210_TS_DEWT_052020.nc | 27-Oct-2024 04:38 | 1028212 | ||
| 51210_TS_DEWT_052023.nc | 27-Oct-2024 04:38 | 1108888 | ||
| 51210_TS_DEWT_062017.nc | 27-Oct-2024 04:38 | 2735805 | ||
| 51210_TS_DEWT_062018.nc | 27-Oct-2024 04:39 | 438399 | ||
| 51210_TS_DEWT_062019.nc | 27-Oct-2024 04:39 | 437919 | ||
| 51210_TS_DEWT_062020.nc | 27-Oct-2024 04:39 | 450394 | ||
| 51210_TS_DEWT_062023.nc | 27-Oct-2024 04:39 | 1267699 | ||
| 51210_TS_DEWT_072017.nc | 27-Oct-2024 04:39 | 1015056 | ||
| 51210_TS_DEWT_072018.nc | 27-Oct-2024 04:39 | 470643 | ||
| 51210_TS_DEWT_072019.nc | 27-Oct-2024 04:39 | 472174 | ||
| 51210_TS_DEWT_072020.nc | 27-Oct-2024 04:39 | 682845 | ||
| 51210_TS_DEWT_072023.nc | 27-Oct-2024 04:39 | 669378 | ||
| 51210_TS_DEWT_082017.nc | 27-Oct-2024 04:39 | 6522567 | ||
| 51210_TS_DEWT_082018.nc | 27-Oct-2024 04:39 | 428468 | ||
| 51210_TS_DEWT_082019.nc | 27-Oct-2024 04:39 | 429197 | ||
| 51210_TS_DEWT_082020.nc | 27-Oct-2024 04:39 | 569624 | ||
| 51210_TS_DEWT_082023.nc | 27-Oct-2024 04:39 | 628910 | ||
| 51210_TS_DEWT_092016.nc | 27-Oct-2024 04:39 | 1109963 | ||
| 51210_TS_DEWT_092017.nc | 27-Oct-2024 04:39 | 451728 | ||
| 51210_TS_DEWT_092018.nc | 27-Oct-2024 04:39 | 646109 | ||
| 51210_TS_DEWT_092019.nc | 27-Oct-2024 04:39 | 452638 | ||
| 51210_TS_DEWT_092020.nc | 27-Oct-2024 04:40 | 1313949 | ||
| 51210_TS_DEWT_092023.nc | 27-Oct-2024 04:40 | 451511 | ||
| 51210_TS_DEWT_102016.nc | 27-Oct-2024 04:40 | 475282 | ||
| 51210_TS_DEWT_102017.nc | 27-Oct-2024 04:40 | 1111338 | ||
| 51210_TS_DEWT_102018.nc | 27-Oct-2024 04:40 | 650055 | ||
| 51210_TS_DEWT_102019.nc | 27-Oct-2024 04:40 | 1020635 | ||
| 51210_TS_DEWT_102020.nc | 27-Oct-2024 04:40 | 1110612 | ||
| 51210_TS_DEWT_102023.nc | 27-Oct-2024 04:40 | 1111302 | ||
| 51210_TS_DEWT_112016.nc | 27-Oct-2024 04:40 | 1111782 | ||
| 51210_TS_DEWT_112017.nc | 27-Oct-2024 04:40 | 1030827 | ||
| 51210_TS_DEWT_112018.nc | 27-Oct-2024 04:40 | 644420 | ||
| 51210_TS_DEWT_112019.nc | 27-Oct-2024 04:40 | 1269133 | ||
| 51210_TS_DEWT_112020.nc | 27-Oct-2024 04:40 | 1839858 | ||
| 51210_TS_DEWT_112023.nc | 27-Oct-2024 04:40 | 650255 | ||
| 51210_TS_DEWT_122016.nc | 27-Oct-2024 04:40 | 995385 | ||
| 51210_TS_DEWT_122017.nc | 27-Oct-2024 04:40 | 657527 | ||
| 51210_TS_DEWT_122018.nc | 27-Oct-2024 04:40 | 1005147 | ||
| 51210_TS_DEWT_122019.nc | 27-Oct-2024 04:40 | 1029418 | ||
| 51210_TS_DEWT_122020.nc | 27-Oct-2024 04:40 | 476295 | ||
| 51210_TS_DEWT_122023.nc | 05-Dec-2024 19:46 | 1263431 | ||